Weather History for Westhampton Beach, NY

Change the Weather History Date:

Sunday, January 19, 2014

  Actual Average Record
Temperature  
Mean Temperature 32 °F -  
Max Temperature 37 °F 33 °F 50 °F (1999)
Min Temperature 26 °F 17 °F -2 °F (2005)
Degree Days  
Heating Degree Days 34    
Moisture  
Dew Point 20 °F    
Average Humidity 61    
Maximum Humidity 72    
Minimum Humidity 51    
Precipitation  
Precipitation 0.00 in - - ()
Sea Level Pressure  
Sea Level Pressure 29.75 in    
Wind  
Wind Speed 12 mph (WSW)    
Max Wind Speed 22 mph    
Max Gust Speed 30 mph    
Visibility 10 miles    
Events      
Averages and records for this station are not official NWS values.
T = Trace of Precipitation, MM = Missing Value Source: NWS Daily Summary

Daily Weather History Graph

Daily Weather History Graph

Search for Another Location

Airport:

Trip Planner

Search our weather history database for the weather conditions in past years. The results will help you decide how hot, cold, wet, or windy it might be!

Date:

Astronomy

Jan. 19, 2014 Rise Set
Actual Time 7:10 AM EST 4:52 PM EST
Civil Twilight 6:40 AM EST 5:21 PM EST
Nautical Twilight 6:07 AM EST 5:55 PM EST
Astronomical Twilight 5:34 AM EST 6:28 PM EST
Moon 8:29 PM EST (1/19) 8:37 AM EST (1/19)
Length of Visible Light 10h 41m
Length of Day
9h 41m
Waning Gibbous, 89% of the Moon is Illuminated
Jan 19
Waning Gibbous
Jan 24
Last Quarter
Jan 30
New
Feb 6
First Quarter
Feb 14
Full

Hourly Weather History & Observations

Time (EST) Temp. Windchill Dew Point Humidity Pressure Visibility Wind Dir Wind Speed Gust Speed Precip Events Conditions
12:53 AM 28.0 °F 20.0 °F 19.0 °F 69% 29.81 in 10.0 mi West 8.1 mph - N/A   Clear
1:53 AM 26.1 °F 17.6 °F 18.0 °F 71% 29.82 in 10.0 mi West 8.1 mph - N/A   Clear
2:53 AM 27.0 °F 19.5 °F 19.0 °F 72% 29.82 in 10.0 mi West 6.9 mph - N/A   Clear
3:53 AM 26.1 °F 18.4 °F 18.0 °F 71% 29.81 in 10.0 mi West 6.9 mph - N/A   Clear
4:53 AM 26.1 °F 18.4 °F 18.0 °F 71% 29.81 in 10.0 mi WSW 6.9 mph - N/A   Clear
5:53 AM 27.0 °F 18.7 °F 18.0 °F 69% 29.81 in 10.0 mi WSW 8.1 mph - N/A   Clear
6:53 AM 28.0 °F 19.3 °F 18.0 °F 66% 29.82 in 10.0 mi WSW 9.2 mph - N/A   Overcast
7:53 AM 27.0 °F 18.7 °F 17.1 °F 66% 29.82 in 10.0 mi WSW 8.1 mph - N/A   Mostly Cloudy
8:53 AM 30.0 °F 19.5 °F 19.0 °F 64% 29.82 in 10.0 mi WSW 13.8 mph - N/A   Clear
9:53 AM 30.9 °F 19.8 °F 19.9 °F 64% 29.82 in 10.0 mi WSW 16.1 mph 24.2 mph N/A   Scattered Clouds
10:53 AM 32.0 °F 20.5 °F 18.0 °F 56% 29.80 in 10.0 mi WSW 18.4 mph - N/A   Overcast
11:53 AM 34.0 °F 22.1 °F 19.0 °F 54% 29.76 in 10.0 mi WSW 21.9 mph 27.6 mph N/A   Partly Cloudy
12:53 PM 36.0 °F 26.0 °F 19.9 °F 52% 29.72 in 10.0 mi WSW 17.3 mph 25.3 mph N/A   Overcast
1:53 PM 33.1 °F 21.9 °F 19.0 °F 56% 29.69 in 10.0 mi SW 18.4 mph 29.9 mph N/A   Overcast
2:53 PM 35.1 °F 24.1 °F 19.9 °F 54% 29.69 in 10.0 mi WSW 19.6 mph 24.2 mph N/A   Clear
3:53 PM 35.1 °F 23.8 °F 19.9 °F 54% 29.68 in 10.0 mi WSW 20.7 mph 26.5 mph N/A   Clear
4:53 PM 34.0 °F 24.6 °F 21.0 °F 59% 29.68 in 10.0 mi WSW 13.8 mph 21.9 mph N/A   Clear
5:53 PM 35.1 °F 24.1 °F 21.0 °F 57% 29.69 in 10.0 mi WSW 19.6 mph 25.3 mph N/A   Clear
6:53 PM 36.0 °F 26.3 °F 21.0 °F 55% 29.71 in 10.0 mi West 16.1 mph - N/A   Partly Cloudy
7:53 PM 35.1 °F 26.4 °F 21.0 °F 57% 29.70 in 10.0 mi WSW 12.7 mph - N/A   Clear
8:53 PM 34.0 °F 28.0 °F 23.0 °F 64% 29.69 in 10.0 mi WSW 6.9 mph - N/A   Clear
9:53 PM 37.0 °F 28.1 °F 26.1 °F 65% 29.68 in 10.0 mi WSW 15.0 mph - N/A   Clear
10:53 PM 37.9 °F 28.5 °F 24.1 °F 57% 29.68 in 10.0 mi WSW 17.3 mph 24.2 mph N/A   Clear
11:53 PM 37.9 °F 28.5 °F 21.0 °F 51% 29.68 in 10.0 mi WSW 17.3 mph - N/A   Clear